1498334400.77,39526,23.06,74218.8,6.01,-31.05,-31.57,0,*76
1498334402.0,39527,23.06,74216.5,5.97,-31.05,-31.67,0,*78
1498334403.23,39528,23.06,74216.0,5.99,-31.17,-31.61,0,*7C
1498334404.43,39529,23.06,74212.0,5.99,-31.29,-31.67,0,*76
1498334405.66,39530,23.06,74212.5,5.99,-31.29,-31.85,0,*72
1498334406.89,39531,23.06,74210.5,5.97,-31.05,-31.67,0,*7F
1498334408.11,39532,23.06,74218.3,5.99,-31.01,-31.51,0,*73
1498334409.34,39533,23.06,74216.0,5.99,-31.01,-31.51,0,*72
1498334410.59,39534,23.06,74214.3,5.97,-31.05,-31.57,0,*79
1498334411.85,39535,23.06,74216.8,5.97,-30.83,-31.39,0,*7F
1498334413.1,39536,23.06,74216.3,5.97,-31.01,-31.51,0,*79
1498334414.36,39537,23.06,74210.5,5.97,-30.89,-31.29,0,*76
1498334415.61,39538,23.06,74208.3,5.97,-31.05,-31.51,0,*73
1498334416.87,39539,23.06,74210.3,5.99,-30.77,-31.11,0,*7C
1498334418.15,39540,23.06,74210.0,6.01,-30.51,-30.89,0,*74
1498334419.43,39541,23.06,74210.5,6.01,-30.73,-31.39,0,*7F
1498334420.71,39542,23.06,74212.3,6.01,-30.77,-31.39,0,*78
1498334421.95,39543,23.06,74210.8,5.97,-31.01,-31.45,0,*7E
1498334423.2,39544,23.06,74210.8,5.99,-30.39,-31.11,0,*7C
1498334424.42,39545,23.06,74212.3,5.99,-30.55,-31.33,0,*77
1498334425.62,39546,23.06,74208.3,5.99,-30.23,-31.01,0,*74
1498334426.84,39547,23.06,74204.8,5.99,-30.55,-31.33,0,*75
1498334428.07,39548,23.06,74204.5,5.99,-30.55,-31.33,0,*7A
1498334429.34,39549,23.06,74214.8,6.01,-30.55,-31.39,0,*73
1498334430.61,39550,23.06,74214.3,6.01,-30.55,-31.39,0,*7B
1498334431.85,39551,23.06,74214.8,6.01,-30.67,-31.45,0,*70
1498334433.07,39552,23.06,74206.3,6.03,-30.67,-31.45,0,*71
1498334434.32,39553,23.06,74200.0,6.01,-30.55,-31.29,0,*79
1498334435.59,39554,23.06,74204.0,6.03,-30.17,-30.89,0,*71
1498334436.85,39555,23.06,74204.8,6.03,-30.05,-30.89,0,*73
1498334438.11,39556,23.06,74204.0,6.05,-29.83,-30.73,0,*75
1498334439.37,39557,23.06,74212.5,6.05,-30.17,-31.05,0,*71
1498334440.62,39558,23.06,74216.0,6.03,-30.55,-31.39,0,*71
1498334441.87,39559,23.0,74212.5,6.03,-30.73,-31.57,0,*7C
1498334443.1,39560,23.06,74212.3,6.03,-31.05,-31.73,0,*70
1498334444.35,39561,23.06,74214.0,6.05,-31.33,-31.95,0,*7A
1498334445.61,39562,23.06,74214.8,6.05,-30.83,-31.39,0,*75
1498334446.86,39563,23.06,74218.8,6.05,-30.51,-31.01,0,*70
1498334448.11,39564,23.06,74212.5,6.05,-31.01,-31.57,0,*70
1498334449.35,39565,23.06,74214.3,6.07,-31.11,-31.45,0,*71
1498334450.61,39566,23.0,74214.3,6.05,-31.01,-31.39,0,*7A
1498334451.86,39567,23.06,74206.8,6.05,-31.01,-31.51,0,*75
1498334453.07,39568,23.06,74206.0,6.07,-30.67,-31.33,0,*7D
1498334454.29,39569,23.06,74208.5,6.05,-31.17,-31.67,0,*79
1498334455.57,39570,23.06,74204.3,6.05,-30.89,-31.39,0,*7C
1498334456.83,39571,23.06,74204.8,6.05,-30.51,-31.05,0,*77
1498334458.08,39572,23.06,74194.5,6.05,-30.61,-31.17,0,*74
1498334459.34,39573,23.06,74200.5,6.05,-30.61,-31.17,0,*75
1498334460.56,39574,23.06,74202.8,6.07,-30.55,-31.01,0,*70
1498334461.79,39575,23.06,74198.5,6.07,-30.55,-31.01,0,*71
1498334463.05,39576,23.06,74192.0,6.05,-30.45,-30.89,0,*70
1498334464.29,39577,23.0,74198.5,6.07,-30.27,-30.77,0,*76
1498334465.5,39578,23.0,74198.8,6.07,-30.45,-31.01,0,*7D
1498334466.75,39579,23.06,74196.3,6.07,-30.55,-31.11,0,*7C
1498334467.98,39580,23.06,74200.5,6.07,-30.45,-31.11,0,*7B
1498334469.23,39581,23.06,74198.8,6.05,-30.61,-31.05,0,*7B
1498334470.44,39582,23.0,74202.0,6.07,-30.45,-31.01,0,*78
1498334471.69,39583,23.06,74206.5,6.09,-30.61,-31.29,0,*7B
1498334472.92,39584,23.0,74210.0,6.07,-30.55,-31.17,0,*78
1498334474.18,39585,23.06,74206.0,6.07,-30.55,-31.11,0,*7F
1498334475.42,39586,23.06,74214.3,6.07,-30.77,-31.45,0,*7D
1498334476.63,39587,23.0,74212.8,6.07,-30.67,-31.33,0,*7C
1498334477.86,39588,23.06,74214.3,6.07,-30.61,-31.33,0,*75
1498334479.12,39589,23.06,74212.8,6.09,-30.77,-31.45,0,*7C
1498334480.38,39590,23.06,74218.3,6.09,-30.61,-31.29,0,*79
1498334481.64,39591,23.06,74222.3,6.09,-30.77,-31.45,0,*75
1498334482.9,39592,23.06,74220.3,6.09,-30.61,-31.33,0,*70
1498334484.15,39593,23.0,74216.3,6.09,-30.55,-31.45,0,*77
1498334485.4,39594,23.0,74214.8,6.09,-30.55,-31.33,0,*71
1498334486.63,39595,23.06,74218.3,6.09,-30.45,-31.29,0,*7A
1498334487.89,39596,23.06,74218.3,6.09,-30.67,-31.51,0,*76
1498334489.16,39597,23.06,74216.3,6.09,-30.67,-31.51,0,*77
1498334490.41,39598,23.0,74208.5,6.09,-30.61,-31.33,0,*7A
1498334491.67,39599,23.06,74214.0,6.09,-30.77,-31.45,0,*7D
1498334492.91,39600,23.06,74214.0,6.09,-30.67,-31.45,0,*7F
1498334494.17,39601,23.06,74212.0,6.09,-30.95,-31.67,0,*73
1498334495.46,39602,23.06,74214.8,6.09,-30.95,-31.61,0,*76
1498334496.71,39603,23.06,74214.0,6.09,-30.61,-31.33,0,*7B
1498334497.97,39604,23.06,74210.8,6.09,-30.77,-31.33,0,*7B
1498334499.23,39605,23.0,74208.8,6.09,-30.77,-31.29,0,*71
1498334500.51,39606,23.0,74204.5,6.09,-30.55,-31.11,0,*79
1498334501.76,39607,23.0,74202.3,6.09,-30.61,-31.17,0,*79
1498334503.0,39608,23.0,74204.5,6.09,-30.67,-31.17,0,*70
1498334504.24,39609,23.0,74204.8,6.09,-30.67,-31.29,0,*7C
1498334505.52,39610,23.0,74204.0,6.13,-30.89,-31.23,0,*75
1498334506.77,39611,23.0,74204.5,6.13,-30.77,-31.29,0,*7F
1498334508.06,39612,23.0,74206.3,6.13,-30.73,-31.23,0,*72
1498334509.31,39613,23.06,74204.3,6.09,-30.77,-31.33,0,*7D
1498334510.55,39614,23.06,74206.8,6.09,-30.83,-31.33,0,*71
1498334511.8,39615,23.0,74206.0,6.13,-30.89,-31.29,0,*7A
1498334513.05,39616,23.0,74200.8,6.13,-30.61,-31.29,0,*7F
1498334514.32,39617,23.06,74202.0,6.13,-30.55,-31.11,0,*72
1498334515.6,39618,23.06,74200.8,6.13,-30.55,-31.23,0,*7C
1498334516.87,39619,23.06,74200.8,6.13,-30.73,-31.39,0,*72
1498334518.13,39620,23.0,74206.5,6.13,-30.89,-31.45,0,*76
1498334519.39,39621,23.06,74204.3,6.09,-30.83,-31.61,0,*70
1498334520.64,39622,23.0,74200.8,6.13,-30.61,-31.29,0,*78
1498334521.92,39623,23.0,74208.3,6.13,-30.55,-31.23,0,*74
1498334523.17,39624,23.0,74212.3,6.13,-30.73,-31.29,0,*7D
1498334524.43,39625,23.0,74208.3,6.13,-30.89,-31.45,0,*73
1498334525.68,39626,23.0,74210.5,6.13,-30.73,-31.29,0,*7F
1498334526.94,39627,23.0,74206.8,6.13,-30.77,-31.29,0,*7A
1498334528.21,39628,23.0,74204.8,6.13,-30.77,-31.39,0,*74
1498334529.47,39629,23.0,74210.5,6.13,-30.89,-31.45,0,*7F
1498334530.76,39630,23.0,74208.3,6.09,-31.11,-31.61,0,*7A
1498334532.03,39631,23.0,74208.5,6.13,-30.95,-31.57,0,*78
1498334533.27,39632,23.0,74210.0,6.09,-30.83,-31.33,0,*75
1498334534.52,39633,23.0,74212.5,6.17,-31.01,-31.51,0,*74
1498334535.77,39634,23.0,74212.8,6.13,-31.11,-31.79,0,*7C
1498334537.05,39635,23.06,74212.5,6.13,-31.11,-31.73,0,*77
1498334538.32,39636,23.06,74214.0,6.13,-30.95,-31.57,0,*7F
1498334539.61,39637,23.0,74210.3,6.09,-31.11,-31.61,0,*7D
1498334540.89,39638,23.0,74210.0,6.13,-31.23,-31.73,0,*7B
1498334542.15,39639,23.0,74212.3,6.09,-30.83,-31.51,0,*7A
1498334543.44,39640,23.0,74214.3,6.09,-30.95,-31.61,0,*70
1498334544.71,39641,23.0,74214.8,6.13,-30.73,-31.39,0,*7F
1498334545.97,39642,23.0,74214.3,6.09,-30.95,-31.79,0,*7B
1498334547.2,39643,23.0,74218.0,6.09,-31.29,-32.01,0,*70
1498334548.44,39644,23.0,74218.5,6.07,-31.11,-32.01,0,*72
1498334549.69,39645,23.06,74222.3,6.09,-31.01,-31.85,0,*73
1498334550.95,39646,23.0,74218.5,6.07,-30.95,-31.85,0,*72
1498334552.2,39647,23.0,74222.3,6.05,-31.05,-31.91,0,*7C
1498334553.45,39648,23.0,74222.0,6.05,-30.89,-31.67,0,*7F
1498334554.71,39649,23.06,74226.5,6.07,-30.95,-31.85,0,*7D
1498334555.92,39650,23.0,74222.5,6.07,-31.01,-32.01,0,*76
1498334557.12,39651,23.0,74220.0,6.07,-30.83,-31.67,0,*7F
1498334558.36,39652,23.0,74214.8,6.07,-31.01,-31.91,0,*7E
1498334559.62,39653,23.06,74216.8,6.07,-31.11,-31.91,0,*7E
1498334560.87,39654,23.0,74212.5,6.05,-31.05,-32.07,0,*72
1498334562.1,39655,23.0,74212.3,6.07,-31.01,-31.85,0,*7C
1498334563.37,39656,23.0,74212.3,6.07,-31.11,-31.91,0,*7B
1498334564.57,39657,23.0,74214.0,6.07,-31.17,-32.01,0,*76
1498334565.78,39658,23.0,74210.0,6.07,-31.17,-32.01,0,*79
1498334567.04,39659,23.0,74216.3,6.07,-31.11,-31.91,0,*74
1498334568.3,39660,23.0,74218.0,6.05,-31.17,-32.07,0,*76
1498334569.56,39661,23.0,74216.5,6.05,-31.05,-31.95,0,*7C
1498334570.81,39662,23.0,74216.0,6.05,-31.17,-31.85,0,*7D
1498334572.06,39663,23.0,74218.3,6.05,-31.17,-31.91,0,*79
1498334573.31,39664,23.0,74220.8,6.07,-31.45,-32.07,0,*77
1498334574.51,39665,23.0,74220.0,6.07,-31.33,-32.01,0,*71
1498334575.77,39666,23.0,74220.0,6.05,-31.33,-31.91,0,*7A
1498334577.05,39667,23.0,74216.8,6.05,-30.89,-31.51,0,*77
1498334578.27,39668,23.0,74222.5,6.07,-30.83,-31.45,0,*75
1498334579.5,39669,23.0,74212.5,6.07,-31.11,-31.67,0,*7E
1498334580.78,39670,23.0,74214.8,6.05,-31.39,-31.91,0,*77
1498334582.06,39671,23.0,74216.3,6.05,-31.51,-31.95,0,*7C
1498334583.32,39672,23.0,74216.8,6.05,-31.57,-32.23,0,*77
1498334584.6,39673,23.0,74218.3,6.05,-31.39,-31.95,0,*70
1498334585.85,39674,23.0,74212.5,6.05,-31.17,-31.73,0,*73
1498334587.13,39675,23.0,74214.0,6.05,-30.89,-31.51,0,*74
1498334588.39,39676,23.0,74210.0,6.07,-30.95,-31.51,0,*78
1498334589.61,39677,23.0,74210.0,6.07,-30.83,-31.45,0,*7B
1498334590.89,39678,23.0,74210.5,6.05,-30.73,-31.39,0,*72
1498334592.11,39679,23.0,74208.0,6.05,-31.01,-31.67,0,*7C
1498334593.32,39680,23.0,74208.8,6.07,-31.17,-31.79,0,*70
1498334594.61,39681,23.0,74212.0,6.05,-31.23,-31.95,0,*76
1498334595.89,39682,23.0,74210.3,6.05,-31.23,-31.73,0,*7D
1498334597.13,39683,23.0,74210.5,6.05,-31.05,-31.73,0,*78
1498334598.42,39684,23.0,74208.0,6.05,-30.89,-31.51,0,*7A
1498334599.65,39685,23.0,74210.8,6.05,-30.67,-31.33,0,*7F
1498334600.87,39686,23.0,74204.5,6.05,-31.17,-31.67,0,*7B
1498334602.08,39687,23.0,74204.8,6.07,-30.67,-31.33,0,*7F
1498334603.34,39688,23.0,74208.3,6.05,-30.83,-31.39,0,*72
1498334604.6,39689,23.0,74214.0,6.07,-30.95,-31.51,0,*78
1498334605.83,39690,23.0,74216.3,6.07,-31.01,-31.61,0,*7F
1498334607.08,39691,23.0,74212.5,6.05,-31.05,-31.85,0,*72
1498334608.35,39692,23.0,74206.5,6.07,-30.95,-31.51,0,*72
1498334609.6,39693,23.0,74204.3,6.05,-30.61,-31.17,0,*78
1498334610.86,39694,23.0,74198.8,6.05,-30.67,-31.23,0,*7E
1498334612.09,39695,23.0,74202.3,6.07,-30.55,-31.17,0,*7B
1498334613.3,39696,23.0,74212.5,6.07,-30.67,-31.33,0,*7F
1498334614.58,39697,23.0,74208.0,6.13,-30.95,-31.51,0,*72
1498334615.84,39698,23.0,74218.0,6.09,-30.83,-31.51,0,*71
1498334617.1,39699,23.0,74212.3,6.05,-31.17,-31.91,0,*7C
1498334618.3,39700,23.0,74214.8,6.07,-31.17,-31.67,0,*76
1498334619.59,39701,23.0,74212.5,6.09,-30.95,-31.61,0,*74
1498334620.85,39702,23.0,74212.5,6.07,-30.95,-31.51,0,*7A
1498334622.08,39703,23.0,74212.5,6.07,-31.01,-31.61,0,*74
1498334623.34,39704,23.0,74214.0,6.09,-31.01,-31.61,0,*7D
1498334624.56,39705,23.0,74218.0,6.09,-31.01,-31.67,0,*7A
1498334625.82,39706,23.0,74214.5,6.05,-31.01,-31.61,0,*73
1498334627.08,39707,23.0,74224.0,6.07,-30.95,-31.51,0,*7F
1498334628.33,39708,23.0,74218.5,6.09,-31.01,-31.61,0,*71
1498334629.59,39709,23.0,74208.8,6.07,-30.95,-31.51,0,*71
1498334630.83,39710,23.0,74210.5,6.07,-31.01,-31.61,0,*76
1498334632.1,39711,23.0,74210.5,6.05,-30.89,-31.57,0,*71
1498334633.36,39712,23.0,74220.5,6.07,-30.95,-31.51,0,*7B
1498334634.56,39713,23.0,74216.8,6.07,-31.01,-31.67,0,*73
1498334635.8,39714,23.0,74216.3,6.07,-30.83,-31.51,0,*7A
1498334637.04,39715,23.0,74212.8,6.07,-30.83,-31.51,0,*7B
1498334638.25,39716,23.0,74210.5,6.07,-30.67,-31.33,0,*76
1498334639.53,39717,23.0,74208.0,6.05,-30.61,-31.23,0,*72
1498334640.76,39718,23.0,74210.3,6.07,-30.55,-31.29,0,*72
1498334641.99,39719,23.0,74208.8,6.07,-30.55,-31.29,0,*73
1498334643.23,39720,23.0,74208.5,6.07,-30.61,-31.29,0,*7E
1498334644.44,39721,23.0,74208.3,6.07,-30.67,-31.33,0,*72
1498334645.65,39722,23.0,74208.0,6.07,-30.67,-31.33,0,*71
1498334646.88,39723,23.0,74212.0,6.07,-30.83,-31.51,0,*7E
1498334648.12,39724,23.0,74212.8,6.07,-30.67,-31.51,0,*73
1498334649.35,39725,23.0,74214.0,6.07,-31.01,-31.61,0,*70
1498334650.59,39726,23.0,74218.8,6.07,-30.95,-31.79,0,*76
1498334651.82,39727,23.0,74216.8,6.07,-30.83,-31.51,0,*7A
1498334653.04,39728,23.0,74218.3,6.07,-30.67,-31.33,0,*7B
1498334654.29,39729,23.0,74222.0,6.05,-30.83,-31.51,0,*76
1498334655.54,39730,23.0,74218.5,6.05,-31.01,-31.73,0,*75
1498334656.74,39731,23.0,74216.5,6.07,-31.01,-31.79,0,*7C
1498334658.03,39732,23.0,74210.8,6.09,-30.77,-31.51,0,*7B
1498334659.26,39733,23.0,74216.5,6.07,-30.61,-31.33,0,*77
1498334660.52,39734,23.0,74214.8,6.07,-30.77,-31.61,0,*70
1498334661.75,39735,23.0,74212.3,6.07,-31.17,-31.91,0,*79
1498334662.99,39736,23.0,74210.0,6.07,-31.29,-32.07,0,*7B
1498334664.25,39737,23.0,74208.5,6.05,-31.01,-31.95,0,*7A
1498334665.49,39738,23.0,74214.8,6.05,-31.01,-31.73,0,*7D
1498334666.72,39739,23.0,74208.8,6.07,-31.01,-31.85,0,*77
1498334667.96,39740,23.0,74204.3,6.07,-30.83,-31.61,0,*78
1498334669.21,39741,23.0,74198.0,6.05,-30.61,-31.33,0,*70
1498334670.44,39742,23.0,74196.3,6.07,-30.55,-31.33,0,*76
1498334671.68,39743,23.0,74196.3,6.07,-30.83,-31.61,0,*7B
1498334672.93,39744,23.0,74200.3,6.05,-30.73,-31.67,0,*77
1498334674.18,39745,23.0,74202.5,6.05,-30.67,-31.57,0,*70
1498334675.42,39746,23.0,74200.3,6.07,-30.67,-31.51,0,*77
1498334676.65,39747,23.0,74204.0,6.07,-30.95,-31.79,0,*71
1498334677.88,39748,23.0,74212.0,6.07,-31.01,-31.85,0,*71
1498334679.12,39749,23.0,74208.8,6.07,-31.45,-32.07,0,*79
1498334680.33,39750,23.0,74212.3,6.07,-31.45,-32.23,0,*77
1498334681.61,39751,23.0,74214.5,6.05,-31.51,-32.29,0,*7B
1498334682.87,39752,23.0,74212.0,6.05,-31.51,-32.39,0,*79
1498334684.12,39753,23.0,74216.0,6.05,-31.67,-32.45,0,*76
1498334685.4,39754,23.0,74214.8,6.05,-31.73,-32.45,0,*74
1498334686.62,39755,23.0,74214.3,6.05,-31.67,-32.57,0,*73
1498334687.86,39756,23.0,74210.5,6.07,-31.61,-32.57,0,*74
1498334689.14,39757,23.0,74210.5,6.05,-31.85,-32.63,0,*7A
1498334690.4,39758,23.0,74212.3,6.03,-31.57,-32.45,0,*78
1498334691.64,39759,23.0,74208.3,6.03,-31.57,-32.51,0,*7C
1498334692.89,39760,23.0,74210.0,6.03,-31.39,-32.45,0,*7B
1498334694.13,39761,23.0,74216.5,6.03,-31.57,-32.35,0,*75
1498334695.37,39762,23.0,74218.8,6.03,-31.57,-32.51,0,*74
1498334696.65,39763,23.0,74214.8,6.01,-31.57,-32.63,0,*76
1498334697.93,39764,23.0,74220.5,6.01,-31.73,-32.63,0,*77
1498334699.19,39765,23.0,74222.5,6.01,-31.91,-32.69,0,*70
1498334700.48,39766,23.0,74222.8,6.01,-31.95,-32.85,0,*75
1498334701.73,39767,23.0,74218.0,6.01,-32.13,-32.97,0,*7A
1498334702.99,39768,23.0,74214.5,6.01,-32.01,-32.97,0,*76
1498334704.27,39769,23.0,74212.3,6.01,-31.95,-32.79,0,*79
1498334705.5,39770,23.0,74212.5,6.01,-31.29,-32.13,0,*7A
1498334706.79,39771,23.0,74214.3,6.01,-31.57,-32.45,0,*71
1498334708.05,39772,23.0,74212.5,6.01,-31.73,-32.51,0,*71
1498334709.34,39773,23.0,74214.3,6.01,-31.57,-32.19,0,*7A
1498334710.62,39774,23.0,74210.5,6.01,-31.57,-32.19,0,*7D
1498334711.85,39775,23.0,74210.0,6.03,-31.57,-32.13,0,*74
1498334713.09,39776,23.0,74214.3,6.03,-31.29,-31.91,0,*77
1498334714.34,39777,23.0,74214.8,6.01,-31.23,-31.79,0,*78
1498334715.62,39778,23.0,74204.8,6.05,-30.89,-31.39,0,*76
1498334716.88,39779,23.0,74208.8,6.05,-31.17,-31.73,0,*7F
1498334718.08,39780,23.0,74206.8,6.07,-31.17,-31.67,0,*7E
1498334719.33,39781,23.0,74208.3,6.05,-31.17,-31.73,0,*78
1498334720.61,39782,23.0,74210.0,6.05,-31.23,-31.73,0,*7C
1498334721.87,39783,23.0,74204.8,6.05,-31.57,-32.23,0,*78
1498334723.08,39784,23.0,74202.0,6.07,-31.45,-32.01,0,*7E
1498334724.36,39785,23.0,74198.0,6.05,-31.39,-31.91,0,*7C
1498334725.64,39786,23.0,74198.0,6.05,-31.39,-31.85,0,*7A
1498334726.92,39787,23.0,74194.3,6.05,-31.51,-31.95,0,*74
1498334728.12,39788,23.0,74188.5,6.07,-31.17,-31.67,0,*76
1498334729.38,39789,23.0,74198.3,6.09,-31.01,-31.51,0,*7B
1498334730.59,39790,23.0,74202.3,6.07,-30.83,-31.33,0,*72
1498334731.84,39791,23.0,74206.3,6.09,-31.01,-31.51,0,*72
1498334733.07,39792,23.0,74204.8,6.09,-31.33,-31.79,0,*7A
1498334734.31,39793,23.0,74202.3,6.09,-31.33,-31.79,0,*7B
1498334735.51,39794,23.0,74196.0,6.07,-31.29,-31.67,0,*76
1498334736.75,39795,23.0,74192.3,6.07,-31.17,-31.61,0,*7C
1498334737.95,39796,23.0,74204.5,6.07,-31.33,-31.67,0,*7F
1498334739.19,39797,23.0,74208.3,6.09,-31.29,-31.67,0,*7B
1498334740.42,39798,23.0,74204.0,6.07,-31.45,-31.91,0,*79
1498334741.68,39799,23.0,74206.3,6.07,-31.51,-32.07,0,*71
1498334742.92,39800,23.0,74206.5,6.07,-31.61,-32.01,0,*7B
1498334744.17,39801,23.0,74214.8,6.09,-31.51,-32.01,0,*77
1498334745.44,39802,23.0,74216.3,6.07,-31.61,-32.07,0,*7F
1498334746.65,39803,23.0,74218.0,6.07,-31.17,-31.79,0,*75
1498334747.88,39804,23.0,74212.0,6.07,-31.29,-31.85,0,*7C
1498334749.14,39805,23.0,74220.8,6.05,-31.57,-32.01,0,*79
1498334750.42,39806,23.0,74220.8,6.05,-31.51,-31.95,0,*72
1498334751.65,39807,23.0,74218.5,6.09,-31.17,-31.79,0,*7F
1498334752.88,39808,23.0,74222.3,6.07,-31.01,-31.51,0,*73
1498334754.13,39809,23.0,74216.5,6.05,-31.05,-31.57,0,*72
1498334755.38,39810,23.0,74216.8,6.05,-31.01,-31.51,0,*78
1498334756.59,39811,23.0,74218.8,6.07,-30.83,-31.33,0,*74
1498334757.83,39812,23.0,74210.8,6.07,-30.95,-31.45,0,*71
1498334759.06,39813,23.0,74208.0,6.07,-30.95,-31.67,0,*70
1498334760.27,39814,23.0,74212.5,6.07,-30.83,-31.33,0,*71
1498334761.49,39815,23.0,74208.8,6.07,-30.83,-31.45,0,*71
1498334762.75,39816,23.0,74204.3,6.07,-30.95,-31.51,0,*70
1498334764.02,39817,23.0,74200.3,6.07,-30.95,-31.61,0,*72
1498334765.25,39818,23.0,74206.8,6.07,-30.83,-31.51,0,*79
1498334766.51,39819,23.0,74202.5,6.09,-30.77,-31.33,0,*79
1498334767.8,39820,23.0,74200.0,6.09,-30.95,-31.61,0,*78
1498334769.04,39821,23.0,74198.0,6.09,-30.83,-31.45,0,*78
1498334770.27,39822,23.0,74200.0,6.09,-30.67,-31.33,0,*70
1498334771.54,39823,22.94,74196.5,6.09,-30.77,-31.45,0,*71
1498334772.79,39824,22.94,74202.8,6.13,-30.89,-31.45,0,*7C
1498334774.03,39825,23.0,74204.8,6.07,-30.83,-31.61,0,*74
1498334775.3,39826,23.0,74206.0,6.09,-30.95,-31.45,0,*78
1498334776.55,39827,22.94,74208.0,6.09,-31.01,-31.61,0,*73
1498334777.78,39828,23.0,74206.3,6.09,-31.01,-31.67,0,*7A
1498334779.04,39829,23.0,74204.5,6.13,-30.95,-31.45,0,*7C
1498334780.27,39830,23.0,74204.5,6.09,-30.67,-31.33,0,*73
1498334781.51,39831,23.0,74200.3,6.09,-30.83,-31.45,0,*79
1498334782.77,39832,23.0,74206.8,6.13,-30.77,-31.29,0,*70
1498334784.02,39833,23.0,74200.3,6.09,-30.77,-31.33,0,*71
1498334785.28,39834,22.94,74202.8,6.13,-30.73,-31.29,0,*72
1498334786.56,39835,23.0,74206.0,6.13,-30.73,-31.23,0,*79
1498334787.81,39836,23.0,74208.3,6.13,-30.73,-31.29,0,*70
1498334789.08,39837,23.0,74202.3,6.13,-30.95,-31.57,0,*70
1498334790.33,39838,23.0,74206.3,6.13,-31.05,-31.73,0,*71
1498334791.61,39839,23.0,74210.3,6.13,-31.11,-31.61,0,*76
1498334792.84,39840,23.0,74210.0,6.09,-31.33,-32.01,0,*76
1498334794.1,39841,23.0,74206.3,6.09,-31.29,-31.85,0,*73
1498334795.35,39842,23.0,74210.8,6.15,-30.95,-31.57,0,*74
1498334796.64,39843,23.0,74210.5,6.09,-31.11,-31.61,0,*70
1498334797.92,39844,23.0,74208.5,6.13,-30.95,-31.61,0,*71
1498334799.19,39845,23.0,74208.3,6.13,-30.89,-31.57,0,*78
1498334800.45,39846,22.94,74200.5,6.13,-30.89,-31.45,0,*78
1498334801.7,39847,22.94,74204.3,6.13,-30.61,-31.29,0,*75
1498334802.95,39848,23.0,74210.0,6.09,-30.61,-31.33,0,*7A
1498334804.21,39849,23.0,74208.5,6.13,-30.73,-31.45,0,*72
1498334805.46,39850,22.94,74212.8,6.13,-30.73,-31.29,0,*70
1498334806.72,39851,22.94,74214.0,6.13,-30.89,-31.45,0,*7E
1498334807.95,39852,23.0,74214.5,6.09,-31.17,-31.79,0,*7F
1498334809.23,39853,22.94,74206.5,6.13,-31.11,-31.73,0,*79
1498334810.49,39854,23.0,74210.0,6.09,-31.45,-31.91,0,*78
1498334811.77,39855,22.94,74204.0,6.13,-31.23,-31.61,0,*7D
1498334813.03,39856,22.94,74202.8,6.09,-31.17,-31.61,0,*72
1498334814.29,39857,23.0,74204.3,6.13,-31.11,-31.29,0,*72
1498334815.52,39858,23.0,74204.3,6.13,-31.05,-31.45,0,*72
1498334816.77,39859,22.94,74202.0,6.13,-31.05,-31.39,0,*78
1498334818.0,39860,22.94,74200.3,6.09,-31.17,-31.79,0,*7E
1498334819.28,39861,22.94,74200.5,6.09,-31.11,-31.61,0,*70
1498334820.54,39862,23.0,74204.5,6.09,-31.11,-31.67,0,*75
1498334821.82,39863,23.0,74210.0,6.13,-30.89,-31.61,0,*79
1498334823.1,39864,22.94,74206.3,6.13,-30.73,-31.51,0,*78
1498334824.37,39865,22.94,74204.5,6.13,-30.73,-31.57,0,*7F
1498334825.63,39866,22.94,74208.0,6.09,-30.95,-31.79,0,*73
1498334826.86,39867,22.94,74208.3,6.09,-31.01,-32.01,0,*72
1498334828.08,39868,23.0,74212.8,6.13,-31.05,-32.13,0,*71
1498334829.31,39869,22.94,74212.3,6.09,-31.45,-32.35,0,*7B
1498334830.52,39870,22.94,74210.5,6.07,-31.33,-32.35,0,*7C
1498334831.76,39871,22.94,74208.8,6.07,-31.17,-32.19,0,*75
1498334832.97,39872,22.94,74210.3,6.07,-31.33,-32.23,0,*79
1498334834.17,39873,22.94,74206.5,6.07,-31.29,-32.23,0,*73
1498334835.45,39874,22.94,74212.3,6.05,-31.39,-32.29,0,*7D
1498334836.7,39875,22.94,74214.8,6.05,-31.39,-32.23,0,*76
1498334837.98,39876,22.94,74208.5,6.05,-31.51,-32.29,0,*71
1498334839.23,39877,22.94,74212.8,6.05,-31.67,-32.45,0,*7F
1498334840.49,39878,22.94,74210.3,6.05,-31.57,-32.39,0,*78
1498334841.75,39879,22.94,74208.0,6.05,-31.57,-32.39,0,*79
1498334843.0,39880,22.94,74212.8,6.05,-31.39,-32.13,0,*7F
1498334844.25,39881,22.94,74208.5,6.05,-31.39,-32.01,0,*7D
1498334845.51,39882,22.94,74208.8,6.05,-31.51,-32.13,0,*73
1498334846.79,39883,22.94,74210.5,6.05,-31.39,-32.07,0,*79
1498334848.03,39884,22.94,74212.8,6.03,-31.45,-31.95,0,*7B
1498334849.24,39885,22.94,74214.3,6.03,-31.45,-32.01,0,*74
1498334850.49,39886,22.94,74210.3,6.05,-31.33,-31.91,0,*7A
1498334851.74,39887,22.94,74208.3,6.05,-31.05,-31.73,0,*72
1498334852.96,39888,22.94,74204.5,6.05,-31.05,-31.67,0,*78
1498334854.21,39889,23.0,74204.8,6.05,-31.33,-31.91,0,*75
1498334855.48,39890,22.94,74206.5,6.01,-30.77,-31.45,0,*71
1498334856.71,39891,22.94,74204.8,6.03,-30.89,-31.45,0,*73
1498334857.97,39892,22.94,74196.8,6.05,-30.51,-31.17,0,*74
1498334859.2,39893,22.94,74196.0,6.05,-30.67,-31.33,0,*76
1498334860.46,39894,22.94,74200.3,6.05,-30.83,-31.51,0,*7F
1498334861.69,39895,22.94,74196.8,6.05,-30.67,-31.33,0,*70
1498334862.95,39896,22.94,74198.5,6.05,-30.83,-31.51,0,*7D
1498334864.16,39897,22.94,74196.8,6.07,-30.67,-31.33,0,*70
1498334865.41,39898,22.94,74202.0,6.05,-30.67,-31.39,0,*77
1498334866.67,39899,22.94,74192.3,6.05,-30.83,-31.57,0,*74
1498334867.93,39900,22.94,74190.8,6.05,-30.67,-31.39,0,*77
1498334869.18,39901,22.94,74198.0,6.05,-30.83,-31.51,0,*72
1498334870.45,39902,22.94,74188.5,6.07,-30.95,-31.61,0,*77
1498334871.73,39903,22.94,74188.5,6.05,-31.23,-31.85,0,*72
1498334872.99,39904,22.94,74192.0,6.09,-31.01,-31.51,0,*70
1498334874.27,39905,22.94,74198.0,6.09,-31.11,-31.61,0,*73
1498334875.49,39906,22.94,74198.5,6.07,-30.83,-31.45,0,*72
1498334876.73,39907,22.94,74198.0,6.07,-30.77,-31.45,0,*78
1498334878.02,39908,22.94,74206.3,6.09,-30.95,-31.51,0,*70
1498334879.25,39909,22.94,74206.0,6.07,-31.17,-31.85,0,*7D
1498334880.45,39910,22.94,74202.3,6.07,-31.01,-31.79,0,*71
1498334881.71,39911,22.94,74206.3,6.07,-30.77,-31.51,0,*7A
1498334883.0,39912,22.94,74200.0,6.09,-31.11,-31.85,0,*7F
1498334884.2,39913,22.94,74198.5,6.07,-31.01,-31.67,0,*7D
1498334885.43,39914,22.94,74192.8,6.07,-30.55,-31.29,0,*70
1498334886.66,39915,22.94,74198.5,6.07,-30.55,-31.33,0,*7A
1498334887.87,39916,22.94,74196.8,6.07,-30.67,-31.33,0,*78
1498334889.11,39917,22.94,74202.3,6.07,-30.11,-30.77,0,*79
1498334890.32,39918,22.94,74206.3,6.07,-30.45,-31.17,0,*70
1498334891.61,39919,22.94,74204.8,6.09,-30.95,-31.61,0,*73
1498334892.81,39920,22.94,74210.5,6.07,-31.17,-31.67,0,*7A
1498334894.07,39921,22.94,74208.3,6.09,-30.83,-31.51,0,*7C
1498334895.31,39922,22.94,74206.5,6.07,-30.95,-31.79,0,*7C
1498334896.59,39923,22.94,74204.3,6.09,-30.77,-31.51,0,*75
1498334897.88,39924,22.94,74202.0,6.09,-30.95,-31.61,0,*7D
1498334899.12,39925,22.94,74200.8,6.09,-30.67,-31.45,0,*77
1498334900.37,39926,22.94,74196.5,6.09,-30.55,-31.33,0,*74
1498334901.62,39927,22.94,74192.8,6.09,-30.61,-31.29,0,*79
1498334902.9,39928,22.94,74202.5,6.13,-30.51,-31.11,0,*75
1498334904.15,39929,22.94,74210.3,6.09,-30.55,-31.17,0,*7D
1498334905.41,39930,22.94,74206.8,6.09,-30.61,-31.29,0,*7F
1498334906.67,39931,22.94,74208.3,6.13,-30.73,-31.45,0,*7C
1498334907.92,39932,22.94,74200.0,6.15,-30.55,-31.11,0,*7C
1498334909.19,39933,22.94,74196.0,6.13,-30.39,-31.11,0,*71
1498334910.46,39934,22.94,74190.8,6.13,-30.55,-31.23,0,*7D
1498334911.72,39935,22.94,74184.5,6.13,-30.77,-31.45,0,*7C
1498334912.97,39936,22.94,74180.8,6.13,-30.77,-31.29,0,*75